Location: Home
(42.5358°N, 72.7383°W)
Time: 14:47:23
(UTC-05:00)

Vanguard 3 - Pass Details

Date: 04 December 2021
Orbit: 508 x 3260 km, 33.3° (Epoch: 20 January)

Event Time Altitude Azimuth Distance (km) Brightness Sun altitude
Rises 10:07:04 0° 278° (W) 6,395 11.4 21.6°
Reaches altitude 10° 10:13:38 10° 263° (W) 4,828 11.0 22.1°
Maximum altitude 10:21:00 18° 228° (SW) 3,496 10.8 22.5°
Drops below altitude 10° 10:26:31 10° 190° (S) 3,438 11.6 22.9°
Sets 10:30:05 0° 171° (S) 3,976 12.1 23.1°
